Tracking 34410 objects as of 16-Jun-2026
HD Live streaming from Space Station
objects crossing your sky now

COSMOS 2357

Track COSMOS 2357 now!
10-day predictions
COSMOS 2357 is classified as:


NORAD ID: 25368
Int'l Code: 1998-036F
Perigee: 1,300.9 km
Apogee: 1,869.1 km
Inclination: 82.6 °
Period: 117.7 minutes
Semi major axis: 7955 km
RCS: 1.0721 m2 (large)
Launch date: June 15, 1998
Source: Commonwealth of Independent States (former USSR) (CIS)
Launch site: PLESETSK MISSILE AND SPACE COMPLEX (PKMTR)

Satellites have a single simultaneous earth-space and space-earth channel.
Your satellite tracking list
Your tracking list is empty




NASA's NSSDC Master Catalog

Two Line Element Set (TLE):
1 25368U 98036F   26166.91136615  .00000013  00000-0  29121-5 0  9997
2 25368  82.5873 321.6991 0357082 131.7872 231.4297 12.23382361250482
Source of the keplerian elements: AFSPC